COSMOS 2549 (47546 NORAD) Tracking and Keplerian Element Data
This shows tracking and keplerian element data for the satellite.
Feedback or suggestion? Click here.
Element | Value |
Catalog | 47546 |
Name | COSMOS 2549 |
Epoch Orbit | 1005 |
Epoch Day | 105.47165153 |
Epoch Year | 2021 |
RAAN | 256.3066 |
Inclination | 67.1446 |
Eccentricity | 0.000634 |
Argument of Perigee | 257.2775 |
Mean Anonmoly | 102.7587 |
Mean Motion | 13.96672024 |
Decay Rate | -7.6E-07 |
L1 | 1 47546U 21008A 21105.47165153 -.00000076 00000-0 -23298-6 0 9993 |
L2 | 2 47546 67.1446 256.3066 0006340 257.2775 102.7587 13.96672024 10058 |
Live tracking and technical data element details for COSMOS 2549 (NORAD 47546). COSMOS 2549 can be tracked NOW for your location showing map with azimuth and elevation plus other details from your city location.
Track the satellite on the map from your city or location and see movement details for azimuth, elevation, latitude, longitude, range, height, and movement on the map or in text.
IsCatalogInMostPopularTable: catalog: 47546, numindb: 17
Update: records affected: 1
GetName: 47546 COSMOS 2549
Hit Count: updated at: Fri, 16 Apr 2021 10:08:55 GMT